Location: Newark
(49.8348°N, 24.0280°E)
Time: 22:10:36
(UTC+00:00)

A-11 Canister half - Visible Passes

Search period start: 17 January 2020 00:00
Search period end: 27 January 2020 00:00
Orbit: 1516 x 1683 km, 47.2° (Epoch: 17 January)

Date Brightness Start Highest point End Pass type
(mag) Time Alt. Az. Time Alt. Az. Time Alt. Az.
17 Jan 9.1 02:01:32 62° ESE 02:01:32 62° ESE 02:09:24 10° E visible
17 Jan 9.0 03:59:43 31° W 04:04:46 74° S 04:14:07 10° ESE visible
18 Jan 9.5 01:39:50 50° ESE 01:39:50 50° ESE 01:46:29 10° E visible
18 Jan 8.9 03:38:02 40° W 03:41:52 75° S 03:51:13 10° ESE visible
18 Jan 9.6 05:37:24 10° W 05:46:06 47° SSW 05:54:59 10° SE visible
19 Jan 9.8 01:18:08 40° E 01:18:08 40° E 01:23:35 10° E visible
19 Jan 8.9 03:16:20 52° WSW 03:18:59 76° S 03:28:19 10° ESE visible
19 Jan 9.5 05:14:32 10° W 05:23:14 49° SSW 05:32:10 10° SE visible
20 Jan 10.2 00:56:27 31° E 00:56:27 31° E 01:00:40 10° E visible
20 Jan 8.8 02:54:39 65° WSW 02:56:05 76° S 03:05:25 10° ESE visible
20 Jan 9.4 04:52:50 15° W 05:00:24 51° SSW 05:09:21 10° SE visible
21 Jan 10.5 00:34:46 23° E 00:34:46 23° E 00:37:46 10° E visible
21 Jan 8.8 02:32:57 76° SSW 02:33:12 77° S 02:42:30 10° ESE visible
21 Jan 9.3 04:31:09 20° W 04:37:33 53° SSW 04:46:32 10° SE visible
22 Jan 10.8 00:13:05 17° E 00:13:05 17° E 00:14:52 10° E visible
22 Jan 8.9 02:11:17 71° SE 02:11:17 71° SE 02:19:36 10° E visible
22 Jan 9.2 04:09:28 27° W 04:14:41 54° SSW 04:23:42 10° SE visible
22 Jan 11.1 23:51:25 12° E 23:51:25 12° E 23:51:58 10° E visible
23 Jan 9.2 01:49:37 57° ESE 01:49:37 57° ESE 01:56:42 10° E visible
23 Jan 9.1 03:47:49 34° W 03:51:50 56° SSW 04:00:53 10° SE visible
24 Jan 9.6 01:27:58 44° ESE 01:27:58 44° ESE 01:33:48 10° E visible
24 Jan 9.0 03:26:10 44° WSW 03:28:58 58° SSW 03:38:02 10° SE visible
24 Jan 10.1 05:25:21 10° W 05:32:27 26° SW 05:39:38 10° S visible
25 Jan 10.0 01:06:22 34° E 01:06:22 34° E 01:10:54 10° E visible
25 Jan 8.9 03:04:33 54° WSW 03:06:07 60° SSW 03:15:12 10° SE visible
25 Jan 10.0 05:02:45 11° W 05:09:39 27° SW 05:17:02 10° S visible
26 Jan 10.4 00:44:46 25° E 00:44:46 25° E 00:48:00 10° E visible
26 Jan 8.9 02:42:58 61° SSW 02:43:15 61° SSW 02:52:21 10° SE visible
26 Jan 9.9 04:41:11 16° W 04:46:51 29° SW 04:54:24 10° S visible
